Location: Sternwarte_Laufen
(47.9344°N, 12.9346°E)
Time: 05:13:30
(UTC+02:00)

ISS - Pass Details

Date: 22 May 2018
Orbit: 402 x 407 km, 51.6° (Epoch: 25 May)

Event Time Altitude Azimuth Distance (km) Brightness Sun altitude
Rises 01:28:10 0° 284° (WNW) 2,319 0.1 -21.5°
Reaches altitude 10° 01:30:19 10° 292° (WNW) 1,459 -0.8 -21.5°
Maximum altitude 01:33:27 42° 5° (N) 586 -2.6 -21.4°
Drops below altitude 10° 01:36:35 10° 79° (ENE) 1,457 -0.8 -21.4°
Sets 01:38:44 0° 86° (E) 2,316 0.2 -21.3°
